Regional Weather Roundup
Issued by NWS

Home | Current Version | Previous Version | Graphics & Text | Print | Product List | Glossary On
Versions: 1 2 3 4 5 6 7 8 9 10 11 12 13 14 15 16 17 18 19 20 21 22 23 24 25 26 27 28 29 30 31 32 33 34 35 36 37 38 39 40 41 42 43 44 45 46 47 48 49 50
000
ASUS43 KMPX 261701
RWRMN
WEATHER ROUNDUP FOR MINNESOTA
NATIONAL WEATHER SERVICE TWIN CITIES/CHANHASSEN MN
1100 AM CST WED NOV 26 2014


NOTE: "FAIR" INDICATES FEW OR NO CLOUDS BELOW 12,000 FEET WITH NO
SIGNIFICANT WEATHER AND/OR OBSTRUCTIONS TO VISIBILITY. N/A MEANS
CURRENT SKY AND/OR WEATHER CONDITIONS ARE NOT AVAILABLE.

MNZ060>063-068>070-261800-
   Twin Cities Metro

CITY           SKY/WX    TMP DP  RH WIND       PRES   REMARKS
TWIN CITIES    SNOW      23  20  88 N9        30.18S VSB 1/2 WCI  13
ST PAUL        LGT SNOW  24  21  88 N8        30.20R VSB 3/4 WCI  15
CRYSTAL        LGT SNOW  27  21  78 NE7       30.17R WCI  19
BLAINE         LGT SNOW  27  25  93 N9        30.18R WCI  17
LAKEVILLE      MIX PCPN  21  19  93 NE7       30.16R WCI  13
EDEN PRAIRIE   LGT SNOW  24  20  84 N8        30.16S VSB 3/4 WCI  15
SOUTH ST PAUL  MIX PCPN  24  22  91 N5        30.18R VSB 1/2 WCI  18
LAKE ELMO      LGT SNOW  27  23  86 NE6       30.19R WCI  20
$$
MNZ001>005-007-008-013>017-022>024-027-028-261800-
   Northwest Minnesota

CITY           SKY/WX    TMP DP  RH WIND       PRES   REMARKS
BEMIDJI        PTSUNNY    7  -1  69 N10       30.28R WCI  -8
HALLOCK        SUNNY     -2  -9  71 N14       30.45S WCI -21
ROSEAU         SUNNY     -2  -9  71 N7        30.39S WCI -16
WARROAD        SUNNY     -2  -9  71 NW7       30.38R WCI -16
THIEF RVR FALL MOSUNNY    0  -8  71 N12       30.37S WCI -18
CROOKSTON      MOSUNNY    0  -6  78 N18       30.43R WCI -22
FOSSTON        MOSUNNY    3  -2  78 N12       30.34R WCI -13
DETROIT LAKES  MOSUNNY    9   3  78 N15       30.30R WCI  -8
MOORHEAD       PTSUNNY    3   0  85 N20       30.39R WCI -18
PARK RAPIDS    CLOUDY    12   4  70 N16       30.25R WCI  -5
MAHNOMEN       CLOUDY     4  -3  75 N15       30.31S WCI -15
$$
MNZ006-009>011-018-025>026-261800-
   North Central Minnesota

CITY           SKY/WX    TMP DP  RH WIND       PRES   REMARKS
BAUDETTE       SUNNY     -1  -7  75 NW14      30.33R WCI -20
FLAG ISLAND    SUNNY     -6 -11  77 NW13      30.36R WCI -25
INTL FALLS     MOSUNNY    5  -3  69 N8        30.28S WCI  -8
WASKISH        SUNNY      5   0  78 CALM      30.31R
BIG FORK       FLURRIES  12   3  67 N7        30.25R WCI   2
LONGVILLE      FLURRIES  16   7  67 NW6       30.24S WCI   7
GRAND RAPIDS   MOSUNNY   12   7  79 N10       30.21R WCI  -1
CRANE LAKE     PTSUNNY   10   3  72 N7        30.27S WCI   0
ORR            MOSUNNY   10   3  72 NW6       30.20S WCI   1
COOK           FLURRIES  12   7  79 NW8       30.21S WCI   1
WALKER         FAIR      11   3  70 N7        30.26R WCI   0
$$
MNZ012-019>021-037-261800-
   Northeast Minnesota

CITY           SKY/WX    TMP DP  RH WIND       PRES   REMARKS
DULUTH         FLURRIES  20  12  71 N9        30.16R WCI   9
ELY            LGT SNOW  14   9  79 N5        30.18S WCI   6
HIBBING        FLURRIES  15   7  70 N10       30.20S WCI   2
EVELETH        FLURRIES  18  10  73 N7        30.20S WCI   8
DULUTH HARBOR  CLOUDY    25  16  68 CALM      30.22S
TWO HARBORS    PTSUNNY   25  14  63 NW5       30.16S WCI  19
SILVER BAY     MOSUNNY   21  12  68 NW3       30.15S
GRAND MARAIS     N/A     23  12  62 MISG      30.19R
G MARAIS ARPRT LGT SNOW  16   9  73 NW9       30.11S WCI   4
$$
MNZ029>031-032-039>041-046>048-054>057-064-261800-
   West Central Minnesota

CITY           SKY/WX    TMP DP  RH WIND       PRES   REMARKS
FERGUS FALLS   PTSUNNY   10   3  72 N15G21    30.34R WCI  -6
WHEATON        SUNNY      7   1  78 NW14G20   30.34S WCI -10
MORRIS         CLOUDY    10   7  85 NW20      30.27R WCI  -8
ALEXANDRIA     CLOUDY    17  11  77 N14       30.23R WCI   3
ELBOW LAKE       N/A     10   6  81 NW14      30.27R WCI  -5
WADENA         MOSUNNY   16   9  73 N12       30.23R WCI   3
GLENWOOD       CLOUDY    19  16  86 N12       30.22R WCI   7
APPLETON       CLOUDY    14   9  79 N22       30.28R HAZE    WCI  -4
BENSON         CLOUDY    18  12  79 N13G20    30.25R WCI   4
ORTONVILLE     CLOUDY     9   3  78 N16       30.29R HAZE    WCI  -9
MADISON        CLOUDY    16  10  79 NW22G30   30.28R HAZE    WCI  -2
WILLMAR        FAIR      25  18  74 N13       30.21R WCI  13
$$
MNZ033>034-036-042>043-049>051-058-059-261800-
   Central Minnesota

CITY           SKY/WX    TMP DP  RH WIND       PRES   REMARKS
ST CLOUD       CLOUDY    23  16  74 N8        30.20R WCI  14
SAUK CENTRE    CLOUDY    19  14  80 N9        30.21S WCI   8
PAYNESVILLE    MOSUNNY   19  15  82 N15       30.21R WCI   5
AITKIN         FLURRIES  19  12  73 N12       30.21R WCI   7
PINE RIVER     MOSUNNY   16   9  73 N9        30.25F WCI   4
BRAINERD       LGT SNOW  15  10  80 N14       30.23R WCI   0
STAPLES        MOSUNNY   16   9  73 NE12      30.22S WCI   3
LONG PRAIRIE   CLOUDY    19  14  79 N13       30.22R WCI   7
LITTLE FALLS   CLOUDY    21  14  73 N6G16     30.23R WCI  14
LITCHFIELD     PTSUNNY   23  19  86 N8        30.19R WCI  14
BUFFALO        PTSUNNY   24  19  83 NE9       30.19S WCI  14
MAPLE LAKE     PTSUNNY   24  20  84 NE7       30.19R WCI  16
$$
MNZ037-044-045-052-053-261800-
   East Central Minnesota

CITY           SKY/WX    TMP DP  RH WIND       PRES   REMARKS
PRINCETON      PTSUNNY   23  18  80 N7        30.19R WCI  15
MORA           MOSUNNY   23  16  74 N6        30.21S WCI  16
CAMBRIDGE      PTSUNNY   25  16  68 N6        30.17S WCI  18
RUSH CITY      CLOUDY    23  17  78 N9        30.19S WCI  13
MOOSE LAKE     CLOUDY    23  14  68 N8        30.18S WCI  14
HINCKLEY       PTSUNNY   25  18  74 CALM      30.19S
CLOQUET        FLURRIES  19  12  73 N7        30.17S WCI  10
MCGREGOR       CLOUDY    19  14  79 N12       30.21R WCI   7
$$
MNZ071>073-080-081-089-090-097-098-261800-
   Southwest Minnesota

CITY           SKY/WX    TMP DP  RH WIND       PRES   REMARKS
MONTEVIDEO     CLOUDY    16  10  79 N21       30.25R HAZE    WCI  -2
GRANITE FALLS  CLOUDY    18  14  83 NW14      30.24R WCI   4
CANBY          LGT SNOW  12   9  85 NW18      30.28R WCI  -5
MARSHALL       CLOUDY    12   7  79 N24       30.22R WCI  -8
REDWOOD FALLS  PTSUNNY   24  19  81 N13G20    30.19R WCI  12
OLIVIA         MOSUNNY   23  19  86 N9        30.19R WCI  13
PIPESTONE      PTSUNNY   18  14  86 N17G25    30.16R WCI   2
WINDOM         SNOW      23  21  93 N22G28    30.12R VSB 1/2 WCI   8
WORTHINGTON    CLOUDY    21  18  86 N23G30    30.13R WCI   5
JACKSON        LGT SNOW  27  21  80 VRB14G23  30.10R WCI  15
TRACY          CLOUDY    19  16  88 N20G26    30.19R FOG     WCI   3
SLAYTON        CLOUDY    19  17  93 N21G31    30.15R FOG     WCI   2
$$
MNZ065>067-074>077-082>085-091>093-261800-
   South Central Minnesota

CITY           SKY/WX    TMP DP  RH WIND       PRES   REMARKS
MANKATO        CLOUDY    23  18  80 NE15      30.13R VSB 1   WCI  10
NEW ULM        SNOW      21  21 100 N12       30.15R VSB 1/4 WCI   9
ST JAMES       LGT SNOW  25  23  93 N12       30.15R VSB 3/4 WCI  14
FAIRMONT       CLOUDY    25  21  86 N14       30.10R WCI  13
GLENCOE        LGT SNOW  25  22  91 N10       30.17R WCI  15
FARIBAULT      SNOW      23  21  93 N8        30.14R VSB 1/4 WCI  14
OWATONNA       SNOW      23  19  86 N8        30.12R VSB 1/4 WCI  14
WASECA         SNOW      21  18  86 NE16      30.13R VSB 1/2 WCI   7
ALBERT LEA     SNOW      25  25 100 N10       30.08R VSB 1/2 WCI  15
$$
MNZ078>079-086>088-094>096-261800-
   Southeast Minnesota

CITY           SKY/WX    TMP DP  RH WIND       PRES   REMARKS
ROCHESTER      LGT SNOW  23  19  85 NE12      30.09R FOG     WCI  12
RED WING       LGT SNOW  27  21  80 NE3       30.16R VSB 3/4
STANTON        LGT SNOW  26  21  83 NE9       30.14R WCI  16
DODGE CENTER   LGT SNOW  23  21  93 NE9       30.10R WCI  13
WINONA         PTSUNNY   27  21  80 CALM      30.16R
AUSTIN         LGT SNOW  25  23  93 NE6       30.08R VSB 1   WCI  18
PRESTON        CLOUDY    23  19  85 NE6       30.09R WCI  16
$$
ABBREVIATIONS USED IN REMARKS
   TC - TEMPERATURES IN CELSIUS
  WCI - WIND CHILL INDEX
   HX - HEAT INDEX
  VSB - VISIBILITY
$$


USA.gov is the U.S. government's official web portal to all federal, state and local government web resources and services.